| time (UTC) | temp F | wind direction | speed knots | gust knots | rain 1hr in | rain 24hr in | rain mn in | humidity % | barometer mb |
| 20260507134542 | 56 | 124 | 0.9 | 11.3 | 0.00 | 0.14 | 0.05 | 72 | 1005.4 |
| 20260507134041 | 56 | 25 | 2.6 | 11.3 | 0.00 | 0.14 | 0.05 | 71 | 1005.3 |
| 20260507133541 | 56 | 87 | 0.9 | 7.8 | 0.00 | 0.14 | 0.05 | 73 | 1005.3 |
| 20260507133041 | 56 | 41 | 1.7 | 7.8 | 0.00 | 0.14 | 0.05 | 74 | 1005.1 |
| 20260507132540 | 56 | 5 | 1.7 | 9.6 | 0.00 | 0.14 | 0.05 | 74 | 1005.1 |
| 20260507132040 | 56 | 49 | 1.7 | 7.8 | 0.00 | 0.14 | 0.05 | 74 | 1005.1 |
| 20260507131554 | 56 | 15 | 1.7 | 7.8 | 0.00 | 0.14 | 0.05 | 74 | 1005.1 |
| 20260507131041 | 56 | 24 | 2.6 | 7.8 | 0.00 | 0.14 | 0.05 | 75 | 1005.1 |
| 20260507130540 | 56 | 41 | 0.9 | 7.0 | 0.00 | 0.14 | 0.05 | 76 | 1005.0 |
| 20260507130041 | 56 | 39 | 2.6 | 8.7 | 0.00 | 0.14 | 0.05 | 76 | 1005.2 |
| 20260507125537 | 56 | 307 | 1.7 | 8.7 | 0.00 | 0.14 | 0.05 | 77 | 1005.2 |
| 20260507125036 | 56 | 70 | 1.7 | 7.0 | 0.00 | 0.14 | 0.05 | 78 | 1005.2 |
| 20260507124536 | 56 | 70 | 0.9 | 7.8 | 0.00 | 0.14 | 0.05 | 79 | 1005.3 |
| 20260507124035 | 56 | 9 | 2.6 | 7.8 | 0.00 | 0.14 | 0.05 | 79 | 1005.2 |
| 20260507123535 | 56 | 52 | 1.7 | 6.1 | 0.00 | 0.14 | 0.05 | 80 | 1005.1 |
| 20260507123035 | 56 | 37 | 1.7 | 6.1 | 0.00 | 0.14 | 0.05 | 80 | 1005.0 |
| 20260507122533 | 56 | 348 | 0.0 | 6.1 | 0.00 | 0.14 | 0.05 | 81 | 1005.0 |
| 20260507122034 | 56 | 30 | 1.7 | 6.1 | 0.00 | 0.14 | 0.05 | 81 | 1005.0 |
| 20260507121533 | 56 | 18 | 0.9 | 4.3 | 0.00 | 0.14 | 0.05 | 81 | 1005.0 |
| 20260507121033 | 56 | 46 | 0.0 | 1.7 | 0.00 | 0.14 | 0.05 | 83 | 1004.8 |
| 20260507120531 | 55 | 84 | 0.0 | 3.5 | 0.00 | 0.14 | 0.05 | 83 | 1004.6 |
| 20260507120031 | 55 | 30 | 0.0 | 4.3 | 0.00 | 0.14 | 0.05 | 83 | 1004.5 |
| 20260507115532 | 55 | 61 | 0.9 | 5.2 | 0.00 | 0.14 | 0.05 | 83 | 1004.5 |
| 20260507115035 | 55 | 49 | 0.9 | 3.5 | 0.00 | 0.14 | 0.05 | 83 | 1004.6 |
| 20260507114630 | 55 | 4 | 0.0 | 3.5 | 0.00 | 0.14 | 0.05 | 84 | 1004.7 |
| 20260507114030 | 55 | 51 | 0.0 | 5.2 | 0.00 | 0.14 | 0.05 | 84 | 1004.7 |
| 20260507113532 | 54 | 40 | 0.9 | 5.2 | 0.00 | 0.14 | 0.05 | 84 | 1004.6 |
| 20260507113030 | 54 | 57 | 0.0 | 4.3 | 0.00 | 0.14 | 0.05 | 84 | 1004.6 |
| 20260507112531 | 54 | 46 | 0.0 | 5.2 | 0.00 | 0.14 | 0.05 | 84 | 1004.4 |
| 20260507112029 | 54 | 62 | 1.7 | 6.1 | 0.00 | 0.14 | 0.05 | 84 | 1004.3 |
| 20260507111530 | 54 | 57 | 0.9 | 6.1 | 0.00 | 0.14 | 0.05 | 84 | 1004.4 |
| 20260507111027 | 54 | 49 | 0.0 | 4.3 | 0.00 | 0.14 | 0.05 | 85 | 1004.3 |
| 20260507110527 | 54 | 62 | 0.9 | 5.2 | 0.00 | 0.14 | 0.05 | 85 | 1004.5 |
| 20260507110027 | 54 | 66 | 0.9 | 5.2 | 0.00 | 0.14 | 0.05 | 86 | 1004.6 |
| 20260507105527 | 54 | 356 | 0.0 | 2.6 | 0.00 | 0.14 | 0.05 | 86 | 1004.5 |
| 20260507105026 | 54 | 281 | 0.0 | 2.6 | 0.00 | 0.14 | 0.05 | 86 | 1004.4 |
| 20260507104527 | 54 | 322 | 0.0 | 2.6 | 0.00 | 0.14 | 0.05 | 86 | 1004.4 |
| 20260507104027 | 54 | 75 | 0.0 | 5.2 | 0.00 | 0.14 | 0.05 | 86 | 1004.4 |
| 20260507103525 | 54 | 37 | 1.7 | 5.2 | 0.00 | 0.14 | 0.05 | 86 | 1004.4 |
| 20260507103030 | 54 | 15 | 0.9 | 4.3 | 0.00 | 0.14 | 0.05 | 86 | 1004.2 |
| 20260507102524 | 54 | 58 | 0.0 | 4.3 | 0.00 | 0.14 | 0.05 | 86 | 1004.2 |
| 20260507102024 | 54 | 38 | 0.9 | 4.3 | 0.00 | 0.14 | 0.05 | 86 | 1003.9 |
| 20260507101524 | 54 | 60 | 0.9 | 4.3 | 0.00 | 0.14 | 0.05 | 86 | 1003.9 |
| 20260507101025 | 54 | 45 | 0.0 | 4.3 | 0.00 | 0.14 | 0.05 | 86 | 1004.0 |
| 20260507100526 | 54 | 54 | 0.9 | 5.2 | 0.00 | 0.14 | 0.05 | 86 | 1003.8 |
| 20260507100032 | 54 | 53 | 0.9 | 2.6 | 0.00 | 0.14 | 0.05 | 86 | 1004.0 |
| 20260507095523 | 54 | 344 | 0.0 | 2.6 | 0.00 | 0.14 | 0.05 | 86 | 1004.2 |
| 20260507095023 | 54 | 70 | 0.0 | 3.5 | 0.00 | 0.14 | 0.05 | 86 | 1004.2 |
| 20260507094526 | 54 | 57 | 0.9 | 3.5 | 0.00 | 0.14 | 0.05 | 86 | 1004.1 |
| 20260507094021 | 54 | 43 | 0.0 | 2.6 | 0.00 | 0.14 | 0.05 | 86 | 1004.1 |
| 20260507093522 | 54 | 356 | 0.0 | 3.5 | 0.00 | 0.14 | 0.05 | 86 | 1003.9 |
| 20260507093021 | 54 | 34 | 0.9 | 4.3 | 0.00 | 0.14 | 0.05 | 85 | 1004.0 |
| 20260507092521 | 54 | 49 | 0.9 | 4.3 | 0.00 | 0.14 | 0.05 | 86 | 1003.9 |
| 20260507092020 | 54 | 56 | 0.9 | 3.5 | 0.00 | 0.14 | 0.05 | 86 | 1004.1 |
| 20260507091526 | 54 | 264 | 0.0 | 2.6 | 0.00 | 0.14 | 0.05 | 86 | 1004.1 |
| 20260507091020 | 54 | 31 | 0.0 | 4.3 | 0.01 | 0.14 | 0.05 | 87 | 1003.9 |
| 20260507090519 | 54 | 8 | 0.0 | 3.5 | 0.01 | 0.14 | 0.05 | 87 | 1003.8 |
| 20260507090022 | 54 | 350 | 0.9 | 3.5 | 0.01 | 0.14 | 0.05 | 87 | 1003.6 |
| 20260507085518 | 54 | 48 | 0.0 | 4.3 | 0.01 | 0.14 | 0.05 | 87 | 1003.5 |
| 20260507085019 | 54 | 39 | 0.9 | 4.3 | 0.01 | 0.14 | 0.05 | 87 | 1003.4 |
| 20260507084519 | 54 | 45 | 0.0 | 1.7 | 0.01 | 0.14 | 0.05 | 87 | 1003.6 |
| 20260507084017 | 54 | 23 | 0.0 | 1.7 | 0.01 | 0.14 | 0.05 | 87 | 1003.8 |
| 20260507083520 | 54 | 19 | 0.0 | 2.6 | 0.01 | 0.14 | 0.05 | 87 | 1003.7 |
| 20260507083021 | 54 | 46 | 0.0 | 2.6 | 0.01 | 0.14 | 0.05 | 86 | 1003.7 |
| 20260507082516 | 55 | 45 | 0.0 | 2.6 | 0.01 | 0.14 | 0.05 | 86 | 1003.9 |
| 20260507082015 | 55 | 298 | 0.0 | 5.2 | 0.01 | 0.14 | 0.05 | 86 | 1003.9 |
| 20260507081515 | 55 | 303 | 0.9 | 5.2 | 0.01 | 0.14 | 0.05 | 85 | 1004.3 |
| 20260507081014 | 55 | 299 | 0.9 | 8.7 | 0.00 | 0.13 | 0.04 | 85 | 1004.1 |
| 20260507080512 | 55 | 41 | 1.7 | 8.7 | 0.00 | 0.13 | 0.04 | 85 | 1003.7 |
| 20260507080011 | 55 | 51 | 2.6 | 10.4 | 0.00 | 0.13 | 0.04 | 85 | 1003.2 |
| 20260507075509 | 55 | 30 | 3.5 | 10.4 | 0.00 | 0.13 | 0.04 | 86 | 1003.1 |
| 20260507075009 | 56 | 38 | 1.7 | 7.0 | 0.00 | 0.13 | 0.04 | 87 | 1003.2 |
| 20260507074510 | 56 | 23 | 0.9 | 7.8 | 0.00 | 0.13 | 0.04 | 88 | 1003.2 |
| 20260507074012 | 56 | 60 | 1.7 | 5.2 | 0.00 | 0.13 | 0.04 | 88 | 1003.1 |
| 20260507073511 | 56 | 313 | 1.7 | 6.1 | 0.00 | 0.13 | 0.04 | 88 | 1003.2 |
| 20260507073008 | 56 | 347 | 0.9 | 6.1 | 0.00 | 0.13 | 0.04 | 89 | 1003.0 |
| 20260507072507 | 56 | 53 | 0.9 | 5.2 | 0.00 | 0.13 | 0.04 | 89 | 1002.9 |
| 20260507072008 | 56 | 8 | 0.0 | 5.2 | 0.00 | 0.13 | 0.04 | 89 | 1002.9 |
| 20260507071519 | 56 | 58 | 1.7 | 7.8 | 0.00 | 0.13 | 0.04 | 89 | 1003.0 |
| 20260507071006 | 56 | 11 | 1.7 | 7.8 | 0.00 | 0.13 | 0.04 | 89 | 1003.0 |
| 20260507070507 | 56 | 75 | 0.0 | 4.3 | 0.00 | 0.13 | 0.04 | 89 | 1003.1 |
| 20260507070009 | 56 | 338 | 0.9 | 6.1 | 0.00 | 0.13 | 0.04 | 88 | 1003.2 |
| 20260507065505 | 56 | 42 | 1.7 | 7.8 | 0.00 | 0.13 | 0.04 | 88 | 1003.0 |
| 20260507065004 | 56 | 60 | 2.6 | 8.7 | 0.00 | 0.13 | 0.04 | 89 | 1003.0 |
| 20260507064501 | 56 | 65 | 3.5 | 9.6 | 0.00 | 0.13 | 0.04 | 89 | 1003.0 |
| 20260507064003 | 56 | 65 | 1.7 | 10.4 | 0.01 | 0.13 | 0.04 | 89 | 1003.2 |
| 20260507063501 | 57 | 64 | 2.6 | 10.4 | 0.01 | 0.13 | 0.04 | 90 | 1003.4 |
| 20260507063103 | 57 | 63 | 0.0 | 7.8 | 0.01 | 0.13 | 0.04 | 90 | 1003.4 |
| 20260507062559 | 57 | 301 | 0.9 | 7.0 | 0.01 | 0.13 | 0.04 | 90 | 1003.5 |
| 20260507062058 | 57 | 27 | 0.9 | 7.8 | 0.02 | 0.13 | 0.04 | 91 | 1003.1 |
| 20260507061600 | 57 | 290 | 1.7 | 7.8 | 0.02 | 0.13 | 0.04 | 91 | 1002.8 |
| 20260507061056 | 57 | 60 | 1.7 | 6.1 | 0.02 | 0.13 | 0.04 | 90 | 1002.5 |
| 20260507060554 | 57 | 35 | 0.0 | 5.2 | 0.02 | 0.13 | 0.04 | 90 | 1002.1 |
| 20260507060056 | 57 | 42 | 1.7 | 5.2 | 0.02 | 0.13 | 0.04 | 90 | 1001.6 |
| 20260507055555 | 57 | 51 | 0.9 | 5.2 | 0.02 | 0.13 | 0.04 | 90 | 1001.6 |
| 20260507055052 | 57 | 56 | 0.9 | 6.1 | 0.02 | 0.13 | 0.04 | 90 | 1001.5 |
| 20260507054552 | 58 | 75 | 1.7 | 6.1 | 0.03 | 0.13 | 0.04 | 89 | 1001.5 |
| 20260507054051 | 58 | 59 | 1.7 | 7.8 | 0.02 | 0.12 | 0.03 | 89 | 1001.7 |
| 20260507053551 | 58 | 65 | 2.6 | 8.7 | 0.02 | 0.12 | 0.03 | 89 | 1002.0 |
| 20260507053114 | 59 | 52 | 3.5 | 8.7 | 0.03 | 0.12 | 0.03 | 89 | 1002.4 |
| 20260507052546 | 59 | 59 | 2.6 | 6.1 | 0.03 | 0.12 | 0.03 | 89 | 1002.6 |
| 20260507052045 | 60 | 48 | 0.9 | 7.0 | 0.02 | 0.11 | 0.02 | 89 | 1002.8 |
| 20260507051545 | 60 | 65 | 1.7 | 8.7 | 0.02 | 0.11 | 0.02 | 89 | 1002.9 |
| 20260507051042 | 61 | 6 | 3.5 | 8.7 | 0.02 | 0.11 | 0.02 | 88 | 1003.0 |
| 20260507050540 | 61 | 64 | 0.0 | 7.8 | 0.02 | 0.11 | 0.02 | 88 | 1003.1 |
| 20260507050043 | 62 | 345 | 0.0 | 7.0 | 0.02 | 0.11 | 0.02 | 89 | 1003.0 |
| 20260507045540 | 62 | 68 | 1.7 | 8.7 | 0.02 | 0.11 | 0.02 | 88 | 1003.0 |
| 20260507045035 | 63 | 14 | 1.7 | 5.2 | 0.02 | 0.11 | 0.02 | 88 | 1002.8 |
| 20260507044536 | 63 | 74 | 3.5 | 9.6 | 0.01 | 0.10 | 0.01 | 88 | 1002.4 |
| 20260507044035 | 64 | 51 | 2.6 | 9.6 | 0.01 | 0.10 | 0.01 | 87 | 1002.4 |
| 20260507043533 | 64 | 290 | 2.6 | 6.1 | 0.01 | 0.10 | 0.01 | 88 | 1002.8 |
| 20260507043035 | 65 | 294 | 0.9 | 2.6 | 0.00 | 0.09 | 0.00 | 88 | 1002.7 |
| 20260507042533 | 65 | 55 | 0.0 | 2.6 | 0.00 | 0.09 | 0.00 | 87 | 1002.3 |
| 20260507042030 | 65 | 259 | 0.0 | 0.9 | 0.00 | 0.09 | 0.00 | 87 | 1002.3 |
| 20260507041530 | 65 | 350 | 0.0 | 2.6 | 0.00 | 0.09 | 0.00 | 87 | 1002.0 |
| 20260507041029 | 65 | 348 | 0.0 | 2.6 | 0.00 | 0.09 | 0.00 | 87 | 1002.1 |
| 20260507040527 | 65 | 356 | 0.0 | 0.9 | 0.00 | 0.09 | 0.00 | 86 | 1002.3 |
| 20260507040029 | 65 | 274 | 0.0 | 1.7 | 0.00 | 0.09 | 0.00 | 86 | 1002.4 |
| 20260507035527 | 65 | 273 | 0.0 | 1.7 | 0.00 | 0.09 | 0.09 | 86 | 1002.2 |
| 20260507035027 | 65 | 245 | 0.0 | 0.0 | 0.00 | 0.09 | 0.09 | 86 | 1002.1 |
| 20260507034535 | 65 | 245 | 0.0 | 0.0 | 0.00 | 0.09 | 0.09 | 85 | 1002.1 |
| 20260507034026 | 65 | 245 | 0.0 | 0.0 | 0.00 | 0.09 | 0.09 | 85 | 1002.0 |
| 20260507033526 | 66 | 245 | 0.0 | 0.0 | 0.00 | 0.09 | 0.09 | 85 | 1001.8 |
| 20260507033038 | 66 | 245 | 0.0 | 0.0 | 0.00 | 0.09 | 0.09 | 85 | 1001.7 |
| 20260507032526 | 66 | 245 | 0.0 | 0.0 | 0.00 | 0.09 | 0.09 | 84 | 1001.7 |
| 20260507032026 | 66 | 245 | 0.0 | 0.0 | 0.00 | 0.09 | 0.09 | 84 | 1001.8 |
| 20260507031525 | 66 | 246 | 0.0 | 0.0 | 0.00 | 0.09 | 0.09 | 85 | 1002.0 |
| 20260507031026 | 66 | 246 | 0.0 | 0.9 | 0.00 | 0.09 | 0.09 | 85 | 1002.3 |
| 20260507030525 | 66 | 237 | 0.0 | 1.7 | 0.00 | 0.09 | 0.09 | 85 | 1002.2 |
| 20260507030027 | 66 | 298 | 0.0 | 1.7 | 0.00 | 0.09 | 0.09 | 85 | 1002.1 |
| 20260507025524 | 65 | 257 | 0.0 | 0.9 | 0.00 | 0.09 | 0.09 | 85 | 1001.8 |
| 20260507025025 | 65 | 257 | 0.0 | 0.9 | 0.00 | 0.09 | 0.09 | 85 | 1001.9 |
| 20260507024524 | 65 | 257 | 0.0 | 0.9 | 0.00 | 0.09 | 0.09 | 85 | 1001.9 |
| 20260507024027 | 66 | 255 | 0.0 | 0.9 | 0.00 | 0.09 | 0.09 | 84 | 1001.9 |
| 20260507023524 | 66 | 223 | 0.0 | 0.9 | 0.00 | 0.09 | 0.09 | 84 | 1001.7 |
| 20260507023027 | 66 | 175 | 0.0 | 0.0 | 0.00 | 0.09 | 0.09 | 84 | 1001.3 |
| 20260507022524 | 66 | 175 | 0.0 | 0.9 | 0.00 | 0.09 | 0.09 | 83 | 1001.2 |
| 20260507022024 | 66 | 174 | 0.0 | 0.9 | 0.00 | 0.09 | 0.09 | 83 | 1001.3 |
| 20260507021523 | 66 | 189 | 0.0 | 1.7 | 0.00 | 0.09 | 0.09 | 84 | 1001.2 |
| 20260507021026 | 66 | 176 | 0.0 | 1.7 | 0.00 | 0.09 | 0.09 | 84 | 1001.3 |
| 20260507020523 | 66 | 228 | 0.0 | 1.7 | 0.00 | 0.09 | 0.09 | 84 | 1001.5 |
| 20260507020024 | 66 | 234 | 0.0 | 0.9 | 0.00 | 0.09 | 0.09 | 84 | 1001.7 |
| 20260507015523 | 66 | 212 | 0.0 | 0.9 | 0.00 | 0.09 | 0.09 | 84 | 1001.6 |
| 20260507015024 | 65 | 243 | 0.0 | 0.9 | 0.00 | 0.09 | 0.09 | 84 | 1001.7 |
| 20260507014523 | 66 | 243 | 0.0 | 0.9 | 0.00 | 0.09 | 0.09 | 83 | 1001.8 |
| 20260507014023 | 66 | 243 | 0.0 | 0.9 | 0.00 | 0.09 | 0.09 | 83 | 1001.6 |
| 20260507013522 | 66 | 243 | 0.0 | 0.9 | 0.00 | 0.09 | 0.09 | 83 | 1001.9 |
| 20260507013022 | 66 | 237 | 0.0 | 2.6 | 0.00 | 0.09 | 0.09 | 83 | 1002.0 |
| 20260507012522 | 66 | 233 | 0.0 | 2.6 | 0.00 | 0.09 | 0.09 | 83 | 1001.9 |
| 20260507012022 | 66 | 232 | 0.0 | 0.9 | 0.00 | 0.09 | 0.09 | 82 | 1002.0 |
| 20260507011522 | 67 | 232 | 0.0 | 0.9 | 0.00 | 0.09 | 0.09 | 82 | 1001.9 |
| 20260507011021 | 67 | 232 | 0.0 | 0.9 | 0.00 | 0.09 | 0.09 | 82 | 1001.6 |
| 20260507010521 | 67 | 232 | 0.0 | 1.7 | 0.00 | 0.09 | 0.09 | 81 | 1001.4 |
| 20260507010025 | 67 | 224 | 0.0 | 3.5 | 0.00 | 0.09 | 0.09 | 81 | 1001.6 |
| 20260507005522 | 67 | 233 | 0.9 | 4.3 | 0.00 | 0.09 | 0.09 | 81 | 1001.5 |
| 20260507005020 | 67 | 237 | 0.9 | 4.3 | 0.00 | 0.09 | 0.09 | 81 | 1001.5 |
| 20260507004527 | 68 | 218 | 1.7 | 3.5 | 0.00 | 0.09 | 0.09 | 81 | 1001.4 |
| 20260507004021 | 68 | 202 | 0.0 | 3.5 | 0.00 | 0.09 | 0.09 | 80 | 1001.3 |
| 20260507003521 | 68 | 203 | 0.9 | 4.3 | 0.00 | 0.09 | 0.09 | 80 | 1001.4 |
| 20260507003021 | 68 | 237 | 0.9 | 4.3 | 0.00 | 0.09 | 0.09 | 80 | 1001.4 |
| 20260507002520 | 68 | 224 | 1.7 | 4.3 | 0.00 | 0.09 | 0.09 | 80 | 1001.4 |
| 20260507002023 | 68 | 206 | 0.0 | 5.2 | 0.00 | 0.09 | 0.09 | 80 | 1001.5 |
| 20260507001520 | 68 | 186 | 1.7 | 5.2 | 0.00 | 0.09 | 0.09 | 80 | 1001.8 |
| 20260507001019 | 69 | 229 | 1.7 | 8.7 | 0.00 | 0.09 | 0.09 | 79 | 1001.6 |
| 20260507000519 | 69 | 191 | 1.7 | 8.7 | 0.00 | 0.09 | 0.09 | 79 | 1001.4 |
| 20260507000019 | 69 | 228 | 1.7 | 7.0 | 0.00 | 0.09 | 0.09 | 79 | 1001.4 |
| 20260506235519 | 69 | 238 | 0.9 | 7.8 | 0.00 | 0.09 | 0.09 | 79 | 1001.5 |
| 20260506235018 | 69 | 214 | 2.6 | 7.8 | 0.00 | 0.09 | 0.09 | 78 | 1001.2 |
| 20260506234519 | 70 | 228 | 3.5 | 7.0 | 0.00 | 0.09 | 0.09 | 78 | 1001.2 |
| 20260506234018 | 70 | 206 | 1.7 | 4.3 | 0.00 | 0.09 | 0.09 | 78 | 1001.1 |
| 20260506233518 | 70 | 143 | 0.0 | 6.1 | 0.00 | 0.09 | 0.09 | 78 | 1000.9 |
| 20260506233017 | 70 | 194 | 1.7 | 7.8 | 0.00 | 0.09 | 0.09 | 78 | 1000.9 |
| 20260506232515 | 70 | 221 | 2.6 | 9.6 | 0.00 | 0.09 | 0.09 | 78 | 1000.9 |
| 20260506232016 | 69 | 207 | 1.7 | 7.8 | 0.00 | 0.09 | 0.09 | 78 | 1000.9 |
| 20260506231516 | 69 | 226 | 2.6 | 8.7 | 0.00 | 0.09 | 0.09 | 78 | 1000.9 |
| 20260506231016 | 70 | 233 | 4.3 | 8.7 | 0.00 | 0.09 | 0.09 | 78 | 1001.0 |
| 20260506230514 | 70 | 223 | 3.5 | 9.6 | 0.00 | 0.09 | 0.09 | 78 | 1001.0 |
| 20260506230015 | 70 | 200 | 4.3 | 10.4 | 0.00 | 0.09 | 0.09 | 78 | 1000.9 |
| 20260506225516 | 70 | 225 | 3.5 | 10.4 | 0.00 | 0.09 | 0.09 | 77 | 1001.0 |
| 20260506225017 | 70 | 231 | 3.5 | 10.4 | 0.00 | 0.09 | 0.09 | 77 | 1001.1 |
| 20260506224515 | 70 | 225 | 4.3 | 7.8 | 0.00 | 0.09 | 0.09 | 77 | 1001.1 |
| 20260506224014 | 70 | 243 | 3.5 | 10.4 | 0.00 | 0.09 | 0.09 | 77 | 1000.9 |
| 20260506223517 | 70 | 200 | 6.1 | 13.0 | 0.00 | 0.09 | 0.09 | 76 | 1001.1 |
| 20260506223017 | 70 | 154 | 4.3 | 13.0 | 0.00 | 0.09 | 0.09 | 76 | 1001.2 |
| 20260506222514 | 71 | 172 | 3.5 | 12.2 | 0.00 | 0.09 | 0.09 | 76 | 1001.1 |
| 20260506222013 | 71 | 240 | 4.3 | 10.4 | 0.00 | 0.09 | 0.09 | 75 | 1001.2 |
| 20260506221515 | 71 | 212 | 4.3 | 9.6 | 0.00 | 0.09 | 0.09 | 75 | 1000.9 |
| 20260506221013 | 71 | 298 | 4.3 | 10.4 | 0.00 | 0.09 | 0.09 | 75 | 1000.8 |
| 20260506220514 | 71 | 157 | 4.3 | 10.4 | 0.00 | 0.09 | 0.09 | 75 | 1000.8 |
| 20260506220028 | 71 | 224 | 3.5 | 12.2 | 0.00 | 0.09 | 0.09 | 75 | 1001.0 |
| 20260506215514 | 71 | 273 | 5.2 | 12.2 | 0.00 | 0.09 | 0.09 | 75 | 1000.8 |
| 20260506215012 | 71 | 220 | 3.5 | 7.8 | 0.00 | 0.09 | 0.09 | 75 | 1000.8 |
| 20260506214512 | 71 | 229 | 2.6 | 12.2 | 0.00 | 0.09 | 0.09 | 75 | 1000.8 |
| 20260506214012 | 71 | 248 | 7.0 | 13.0 | 0.00 | 0.09 | 0.09 | 75 | 1000.9 |
| 20260506213511 | 71 | 229 | 7.0 | 13.0 | 0.00 | 0.09 | 0.09 | 75 | 1000.9 |
| 20260506213011 | 71 | 217 | 5.2 | 12.2 | 0.00 | 0.09 | 0.09 | 75 | 1000.9 |
| 20260506212514 | 71 | 188 | 5.2 | 14.8 | 0.00 | 0.09 | 0.09 | 75 | 1000.8 |
| 20260506212011 | 71 | 233 | 5.2 | 14.8 | 0.00 | 0.09 | 0.09 | 75 | 1000.7 |
| 20260506211510 | 71 | 214 | 6.1 | 13.0 | 0.00 | 0.09 | 0.09 | 75 | 1000.9 |
| 20260506211011 | 70 | 217 | 4.3 | 13.0 | 0.00 | 0.09 | 0.09 | 76 | 1000.9 |
| 20260506210509 | 70 | 219 | 5.2 | 11.3 | 0.00 | 0.09 | 0.09 | 76 | 1000.9 |
| 20260506210013 | 70 | 216 | 5.2 | 12.2 | 0.00 | 0.09 | 0.09 | 76 | 1000.9 |
| 20260506205510 | 70 | 223 | 6.1 | 12.2 | 0.00 | 0.09 | 0.09 | 76 | 1001.0 |
| 20260506205009 | 70 | 226 | 5.2 | 12.2 | 0.00 | 0.09 | 0.09 | 76 | 1000.8 |
| 20260506204509 | 70 | 219 | 7.0 | 14.8 | 0.00 | 0.09 | 0.09 | 76 | 1000.9 |
| 20260506204012 | 69 | 207 | 6.1 | 14.8 | 0.00 | 0.09 | 0.09 | 76 | 1001.1 |
| 20260506203509 | 69 | 245 | 4.3 | 12.2 | 0.00 | 0.09 | 0.09 | 77 | 1000.9 |
| 20260506203015 | 69 | 283 | 7.8 | 12.2 | 0.00 | 0.09 | 0.09 | 77 | 1001.0 |
| 20260506202508 | 68 | 233 | 4.3 | 12.2 | 0.00 | 0.09 | 0.09 | 77 | 1000.9 |
| 20260506202010 | 68 | 185 | 5.2 | 16.5 | 0.00 | 0.09 | 0.09 | 78 | 1001.1 |
| 20260506201508 | 68 | 259 | 6.1 | 16.5 | 0.00 | 0.09 | 0.09 | 78 | 1001.2 |
| 20260506201007 | 68 | 240 | 7.8 | 15.6 | 0.00 | 0.09 | 0.09 | 78 | 1001.1 |
| 20260506200506 | 68 | 207 | 5.2 | 12.2 | 0.00 | 0.09 | 0.09 | 79 | 1001.0 |
| 20260506200006 | 67 | 160 | 7.0 | 12.2 | 0.00 | 0.09 | 0.09 | 79 | 1001.0 |
| 20260506195505 | 67 | 244 | 5.2 | 12.2 | 0.00 | 0.09 | 0.09 | 79 | 1000.9 |
| 20260506195005 | 67 | 216 | 4.3 | 9.6 | 0.00 | 0.09 | 0.09 | 79 | 1001.0 |
| 20260506194505 | 67 | 233 | 3.5 | 13.9 | 0.00 | 0.09 | 0.09 | 80 | 1001.1 |
| 20260506194005 | 67 | 238 | 2.6 | 13.9 | 0.00 | 0.09 | 0.09 | 80 | 1001.2 |
| 20260506193509 | 67 | 224 | 5.2 | 11.3 | 0.00 | 0.09 | 0.09 | 80 | 1001.3 |
| 20260506193004 | 67 | 198 | 5.2 | 15.6 | 0.00 | 0.09 | 0.09 | 80 | 1001.2 |
| 20260506192503 | 66 | 223 | 7.0 | 15.6 | 0.00 | 0.09 | 0.09 | 80 | 1001.7 |
| 20260506192003 | 66 | 202 | 4.3 | 12.2 | 0.00 | 0.09 | 0.09 | 80 | 1001.5 |
| 20260506191502 | 66 | 230 | 6.1 | 14.8 | 0.00 | 0.09 | 0.09 | 80 | 1001.6 |
| 20260506191002 | 66 | 216 | 6.1 | 12.2 | 0.00 | 0.09 | 0.09 | 80 | 1001.7 |
| 20260506190501 | 66 | 227 | 8.7 | 13.9 | 0.00 | 0.09 | 0.09 | 80 | 1001.9 |
| 20260506190002 | 66 | 251 | 7.0 | 11.3 | 0.00 | 0.09 | 0.09 | 80 | 1001.7 |
| 20260506185501 | 66 | 250 | 6.1 | 13.9 | 0.00 | 0.09 | 0.09 | 80 | 1001.8 |
| 20260506185002 | 66 | 226 | 6.1 | 13.0 | 0.00 | 0.09 | 0.09 | 81 | 1002.0 |
| 20260506184501 | 66 | 229 | 7.0 | 13.0 | 0.00 | 0.09 | 0.09 | 81 | 1002.0 |
| 20260506184100 | 66 | 246 | 7.8 | 13.0 | 0.00 | 0.09 | 0.09 | 81 | 1002.0 |
| 20260506183601 | 66 | 243 | 7.0 | 13.0 | 0.00 | 0.09 | 0.09 | 80 | 1001.8 |
| 20260506183120 | 66 | 159 | 6.1 | 12.2 | 0.00 | 0.09 | 0.09 | 80 | 1001.8 |
| 20260506182600 | 66 | 188 | 6.1 | 13.0 | 0.00 | 0.09 | 0.09 | 81 | 1002.1 |
| 20260506182100 | 66 | 229 | 5.2 | 13.0 | 0.00 | 0.09 | 0.09 | 81 | 1002.1 |
| 20260506181603 | 66 | 233 | 5.2 | 12.2 | 0.00 | 0.09 | 0.09 | 81 | 1002.2 |
| 20260506181059 | 66 | 214 | 5.2 | 16.5 | 0.00 | 0.09 | 0.09 | 81 | 1002.0 |
| 20260506180600 | 65 | 221 | 7.8 | 16.5 | 0.00 | 0.09 | 0.09 | 81 | 1001.9 |
| 20260506180115 | 66 | 213 | 6.1 | 12.2 | 0.00 | 0.09 | 0.09 | 80 | 1001.9 |
| 20260506175600 | 66 | 191 | 2.6 | 10.4 | 0.00 | 0.09 | 0.09 | 81 | 1002.4 |
| 20260506175103 | 66 | 217 | 4.3 | 13.9 | 0.00 | 0.09 | 0.09 | 81 | 1002.1 |
| 20260506174557 | 65 | 240 | 7.0 | 13.9 | 0.00 | 0.09 | 0.09 | 81 | 1002.1 |
| 20260506174058 | 65 | 200 | 6.1 | 13.9 | 0.00 | 0.09 | 0.09 | 82 | 1002.3 |
| 20260506173557 | 65 | 236 | 7.0 | 13.9 | 0.00 | 0.09 | 0.09 | 82 | 1002.1 |
| 20260506173134 | 65 | 203 | 4.3 | 13.0 | 0.00 | 0.09 | 0.09 | 83 | 1002.3 |
| 20260506172557 | 65 | 232 | 6.1 | 13.0 | 0.00 | 0.09 | 0.09 | 83 | 1002.3 |
| 20260506172057 | 65 | 179 | 4.3 | 9.6 | 0.00 | 0.09 | 0.09 | 83 | 1002.2 |
| 20260506171557 | 65 | 244 | 3.5 | 10.4 | 0.00 | 0.09 | 0.09 | 83 | 1002.2 |
| 20260506171056 | 65 | 162 | 5.2 | 10.4 | 0.00 | 0.09 | 0.09 | 83 | 1002.1 |
| 20260506170555 | 65 | 197 | 3.5 | 14.8 | 0.00 | 0.09 | 0.09 | 83 | 1002.1 |
| 20260506170054 | 64 | 227 | 7.0 | 14.8 | 0.00 | 0.09 | 0.09 | 83 | 1002.1 |
| 20260506165554 | 64 | 188 | 4.3 | 9.6 | 0.00 | 0.09 | 0.09 | 84 | 1002.3 |
| 20260506165055 | 64 | 243 | 5.2 | 13.9 | 0.00 | 0.09 | 0.09 | 83 | 1002.3 |
| 20260506164553 | 64 | 244 | 6.1 | 12.2 | 0.00 | 0.09 | 0.09 | 84 | 1002.4 |
| 20260506164053 | 64 | 219 | 6.1 | 13.0 | 0.00 | 0.09 | 0.09 | 84 | 1002.5 |
| 20260506163553 | 64 | 227 | 5.2 | 13.0 | 0.00 | 0.09 | 0.09 | 85 | 1002.4 |
| 20260506163058 | 64 | 209 | 5.2 | 11.3 | 0.00 | 0.09 | 0.09 | 85 | 1002.5 |
| 20260506162555 | 63 | 197 | 4.3 | 11.3 | 0.00 | 0.09 | 0.09 | 85 | 1002.5 |
| 20260506162053 | 63 | 255 | 4.3 | 9.6 | 0.00 | 0.09 | 0.09 | 86 | 1003.3 |
| 20260506161556 | 63 | 238 | 5.2 | 9.6 | 0.00 | 0.09 | 0.09 | 86 | 1002.8 |
| 20260506161052 | 63 | 202 | 3.5 | 8.7 | 0.00 | 0.09 | 0.09 | 87 | 1003.0 |
| 20260506160552 | 62 | 205 | 4.3 | 10.4 | 0.00 | 0.09 | 0.09 | 87 | 1002.6 |
| 20260506160051 | 62 | 179 | 6.1 | 11.3 | 0.01 | 0.09 | 0.09 | 88 | 1002.7 |
| 20260506155554 | 62 | 204 | 5.2 | 11.3 | 0.01 | 0.09 | 0.09 | 88 | 1002.7 |
| 20260506155050 | 62 | 186 | 5.2 | 11.3 | 0.02 | 0.09 | 0.09 | 88 | 1002.7 |
| 20260506154551 | 62 | 203 | 4.3 | 11.3 | 0.02 | 0.09 | 0.09 | 89 | 1002.7 |
| 20260506154050 | 62 | 208 | 3.5 | 9.6 | 0.02 | 0.09 | 0.09 | 89 | 1002.9 |
| 20260506153554 | 61 | 209 | 5.2 | 9.6 | 0.02 | 0.09 | 0.09 | 88 | 1002.8 |
| 20260506153049 | 61 | 245 | 3.5 | 11.3 | 0.02 | 0.09 | 0.09 | 89 | 1002.8 |
| 20260506152548 | 61 | 197 | 5.2 | 11.3 | 0.04 | 0.09 | 0.09 | 89 | 1002.6 |
| 20260506152048 | 61 | 214 | 5.2 | 8.7 | 0.06 | 0.09 | 0.09 | 89 | 1002.6 |
| 20260506151548 | 61 | 205 | 3.5 | 9.6 | 0.06 | 0.09 | 0.09 | 89 | 1002.5 |
| 20260506151046 | 61 | 195 | 5.2 | 9.6 | 0.06 | 0.09 | 0.09 | 89 | 1002.5 |
| 20260506150548 | 61 | 102 | 4.3 | 12.2 | 0.05 | 0.08 | 0.08 | 88 | 1002.8 |
| 20260506150045 | 61 | 228 | 3.5 | 12.2 | 0.05 | 0.08 | 0.08 | 88 | 1003.0 |
| 20260506145544 | 61 | 217 | 3.5 | 10.4 | 0.06 | 0.08 | 0.08 | 88 | 1003.1 |
| 20260506145043 | 61 | 213 | 5.2 | 10.4 | 0.05 | 0.07 | 0.07 | 88 | 1003.2 |
| 20260506144559 | 61 | 207 | 4.3 | 8.7 | 0.05 | 0.07 | 0.07 | 88 | 1003.5 |
| 20260506144043 | 61 | 214 | 3.5 | 8.7 | 0.05 | 0.07 | 0.07 | 87 | 1003.4 |
| 20260506143541 | 61 | 212 | 3.5 | 8.7 | 0.05 | 0.07 | 0.07 | 86 | 1003.5 |
| 20260506143041 | 62 | 214 | 4.3 | 8.7 | 0.04 | 0.06 | 0.06 | 86 | 1003.5 |
| 20260506142541 | 62 | 218 | 2.6 | 7.8 | 0.03 | 0.05 | 0.05 | 86 | 1003.5 |
| 20260506142040 | 62 | 225 | 3.5 | 7.8 | 0.02 | 0.03 | 0.03 | 86 | 1003.4 |
| 20260506141540 | 62 | 221 | 1.7 | 7.8 | 0.02 | 0.03 | 0.03 | 86 | 1003.4 |
| 20260506141040 | 62 | 231 | 1.7 | 7.8 | 0.03 | 0.03 | 0.03 | 86 | 1003.3 |
| 20260506140539 | 61 | 211 | 2.6 | 7.8 | 0.03 | 0.03 | 0.03 | 86 | 1003.2 |
| 20260506140039 | 61 | 226 | 2.6 | 6.1 | 0.03 | 0.03 | 0.03 | 85 | 1003.0 |
| 20260506135538 | 62 | 227 | 1.7 | 8.7 | 0.02 | 0.02 | 0.02 | 85 | 1003.0 |
| 20260506135037 | 62 | 178 | 2.6 | 7.0 | 0.02 | 0.02 | 0.02 | 84 | 1002.9 |